| time (UTC) | temp F | wind direction | speed knots | gust knots | rain 1hr in | rain 24hr in | rain mn in | humidity % | barometer mb |
| 20260831193108 | 96 | 134 | 2.6 | 10.4 | 0.00 | 0.00 | 0.00 | 44 | 1014.9 |
| 20260831192541 | 95 | 150 | 3.5 | 12.2 | 0.00 | 0.00 | 0.00 | 46 | 1015.0 |
| 20260831192019 | 95 | 162 | 3.5 | 11.3 | 0.00 | 0.00 | 0.00 | 44 | 1015.1 |
| 20260831191532 | 95 | 133 | 3.5 | 8.7 | 0.00 | 0.00 | 0.00 | 45 | 1015.2 |
| 20260831191011 | 95 | 132 | 3.5 | 8.7 | 0.00 | 0.00 | 0.00 | 46 | 1015.3 |
| 20260831190558 | 95 | 129 | 4.3 | 9.6 | 0.00 | 0.00 | 0.00 | 45 | 1015.3 |
| 20260831190004 | 95 | 71 | 3.5 | 10.4 | 0.00 | 0.00 | 0.00 | 46 | 1015.4 |
| 20260831185548 | 94 | 149 | 3.5 | 8.7 | 0.00 | 0.00 | 0.00 | 47 | 1015.5 |
| 20260831185025 | 94 | 159 | 5.2 | 8.7 | 0.00 | 0.00 | 0.00 | 46 | 1015.5 |
| 20260831184545 | 94 | 144 | 3.5 | 8.7 | 0.00 | 0.00 | 0.00 | 48 | 1015.5 |
| 20260831184015 | 95 | 148 | 2.6 | 8.7 | 0.00 | 0.00 | 0.00 | 46 | 1015.6 |
| 20260831183558 | 95 | 200 | 1.7 | 8.7 | 0.00 | 0.00 | 0.00 | 47 | 1015.7 |
| 20260831183005 | 94 | 142 | 2.6 | 10.4 | 0.00 | 0.00 | 0.00 | 45 | 1015.7 |
| 20260831182548 | 94 | 130 | 6.1 | 12.2 | 0.00 | 0.00 | 0.00 | 45 | 1015.7 |
| 20260831182026 | 94 | 155 | 2.6 | 8.7 | 0.00 | 0.00 | 0.00 | 46 | 1015.8 |
| 20260831181538 | 94 | 134 | 2.6 | 8.7 | 0.00 | 0.00 | 0.00 | 47 | 1015.8 |
| 20260831181015 | 94 | 128 | 1.7 | 8.7 | 0.00 | 0.00 | 0.00 | 47 | 1015.8 |
| 20260831180555 | 93 | 133 | 2.6 | 7.8 | 0.00 | 0.00 | 0.00 | 48 | 1016.0 |
| 20260831180002 | 93 | 160 | 3.5 | 9.6 | 0.00 | 0.00 | 0.00 | 47 | 1016.1 |
| 20260831175545 | 93 | 153 | 3.5 | 9.6 | 0.00 | 0.00 | 0.00 | 48 | 1016.2 |
| 20260831175021 | 93 | 90 | 1.7 | 9.6 | 0.00 | 0.00 | 0.00 | 50 | 1016.2 |
| 20260831174547 | 92 | 55 | 2.6 | 9.6 | 0.00 | 0.00 | 0.00 | 53 | 1016.3 |
| 20260831174013 | 92 | 136 | 3.5 | 9.6 | 0.00 | 0.00 | 0.00 | 53 | 1016.4 |
| 20260831173553 | 92 | 140 | 3.5 | 9.6 | 0.00 | 0.00 | 0.00 | 51 | 1016.5 |
| 20260831173008 | 92 | 140 | 4.3 | 10.4 | 0.00 | 0.00 | 0.00 | 51 | 1016.6 |
| 20260831172550 | 92 | 159 | 4.3 | 8.7 | 0.00 | 0.00 | 0.00 | 52 | 1016.6 |
| 20260831172027 | 91 | 153 | 3.5 | 8.7 | 0.00 | 0.00 | 0.00 | 53 | 1016.6 |
| 20260831171543 | 91 | 129 | 2.6 | 8.7 | 0.00 | 0.00 | 0.00 | 52 | 1016.7 |
| 20260831171014 | 91 | 186 | 0.9 | 5.2 | 0.00 | 0.00 | 0.00 | 56 | 1016.7 |
| 20260831170555 | 91 | 126 | 2.6 | 8.7 | 0.00 | 0.00 | 0.00 | 55 | 1016.8 |
| 20260831170002 | 91 | 147 | 4.3 | 8.7 | 0.00 | 0.00 | 0.00 | 55 | 1016.7 |
| 20260831165543 | 90 | 123 | 1.7 | 7.0 | 0.00 | 0.00 | 0.00 | 57 | 1016.8 |
| 20260831165020 | 90 | 132 | 1.7 | 9.6 | 0.00 | 0.00 | 0.00 | 57 | 1016.8 |
| 20260831164534 | 90 | 144 | 2.6 | 9.6 | 0.00 | 0.00 | 0.00 | 57 | 1016.8 |
| 20260831164008 | 89 | 136 | 2.6 | 6.1 | 0.00 | 0.00 | 0.00 | 58 | 1016.8 |
| 20260831163549 | 89 | 138 | 2.6 | 8.7 | 0.00 | 0.00 | 0.00 | 58 | 1016.8 |
| 20260831163101 | 89 | 159 | 1.7 | 8.7 | 0.00 | 0.00 | 0.00 | 61 | 1016.8 |
| 20260831162537 | 88 | 139 | 4.3 | 7.8 | 0.00 | 0.00 | 0.00 | 61 | 1016.8 |
| 20260831162015 | 88 | 126 | 3.5 | 8.7 | 0.00 | 0.00 | 0.00 | 63 | 1016.8 |
| 20260831161524 | 88 | 131 | 4.3 | 8.7 | 0.00 | 0.00 | 0.00 | 62 | 1016.9 |
| 20260831161002 | 88 | 138 | 2.6 | 7.8 | 0.00 | 0.00 | 0.00 | 64 | 1016.8 |
| 20260831160545 | 88 | 155 | 2.6 | 7.8 | 0.00 | 0.00 | 0.00 | 65 | 1016.8 |
| 20260831160053 | 87 | 200 | 1.7 | 6.1 | 0.00 | 0.00 | 0.00 | 66 | 1016.8 |
| 20260831155530 | 87 | 235 | 1.7 | 5.2 | 0.00 | 0.00 | 0.00 | 68 | 1016.8 |
| 20260831155007 | 87 | 158 | 1.7 | 4.3 | 0.00 | 0.00 | 0.00 | 68 | 1016.8 |
| 20260831154519 | 86 | 198 | 0.0 | 6.1 | 0.00 | 0.00 | 0.00 | 70 | 1016.8 |
| 20260831154100 | 86 | 199 | 0.9 | 6.1 | 0.00 | 0.00 | 0.00 | 70 | 1016.8 |
| 20260831153536 | 86 | 134 | 1.7 | 7.0 | 0.00 | 0.00 | 0.00 | 71 | 1016.8 |
| 20260831153047 | 85 | 199 | 1.7 | 8.7 | 0.00 | 0.00 | 0.00 | 71 | 1016.8 |
| 20260831152520 | 85 | 209 | 1.7 | 8.7 | 0.00 | 0.00 | 0.00 | 72 | 1016.8 |
| 20260831152101 | 85 | 138 | 3.5 | 7.8 | 0.00 | 0.00 | 0.00 | 72 | 1016.8 |
| 20260831151510 | 85 | 173 | 3.5 | 11.3 | 0.00 | 0.00 | 0.00 | 72 | 1016.7 |
| 20260831151052 | 84 | 140 | 4.3 | 11.3 | 0.00 | 0.00 | 0.00 | 73 | 1016.6 |
| 20260831150525 | 84 | 139 | 0.0 | 5.2 | 0.00 | 0.00 | 0.00 | 75 | 1016.6 |
| 20260831150036 | 84 | 144 | 1.7 | 7.0 | 0.00 | 0.00 | 0.00 | 75 | 1016.6 |
| 20260831145512 | 84 | 150 | 2.6 | 9.6 | 0.00 | 0.00 | 0.00 | 75 | 1016.6 |
| 20260831145055 | 84 | 162 | 2.6 | 9.6 | 0.00 | 0.00 | 0.00 | 75 | 1016.5 |
| 20260831144605 | 83 | 157 | 3.5 | 7.8 | 0.00 | 0.00 | 0.00 | 76 | 1016.5 |
| 20260831144041 | 83 | 140 | 4.3 | 8.7 | 0.00 | 0.00 | 0.00 | 77 | 1016.5 |
| 20260831143518 | 83 | 130 | 5.2 | 8.7 | 0.00 | 0.00 | 0.00 | 78 | 1016.4 |
| 20260831143031 | 83 | 159 | 1.7 | 7.0 | 0.00 | 0.00 | 0.00 | 79 | 1016.4 |
| 20260831142506 | 83 | 128 | 2.6 | 7.0 | 0.00 | 0.00 | 0.00 | 79 | 1016.4 |
| 20260831142046 | 82 | 176 | 1.7 | 6.1 | 0.00 | 0.00 | 0.00 | 80 | 1016.4 |
| 20260831141559 | 82 | 195 | 1.7 | 6.1 | 0.00 | 0.00 | 0.00 | 81 | 1016.3 |
| 20260831141034 | 82 | 193 | 0.9 | 6.1 | 0.00 | 0.00 | 0.00 | 82 | 1016.3 |
| 20260831140511 | 81 | 157 | 1.7 | 6.1 | 0.00 | 0.00 | 0.00 | 83 | 1016.3 |
| 20260831140026 | 81 | 209 | 1.7 | 6.1 | 0.00 | 0.00 | 0.00 | 84 | 1016.3 |
| 20260831135603 | 80 | 135 | 1.7 | 6.1 | 0.00 | 0.00 | 0.00 | 85 | 1016.2 |
| 20260831135040 | 80 | 271 | 0.9 | 3.5 | 0.00 | 0.00 | 0.00 | 86 | 1016.2 |
| 20260831134552 | 79 | 155 | 1.7 | 4.3 | 0.00 | 0.00 | 0.00 | 87 | 1016.1 |
| 20260831134027 | 79 | 158 | 0.9 | 6.1 | 0.00 | 0.00 | 0.00 | 88 | 1016.0 |
| 20260831133507 | 79 | 199 | 0.0 | 4.3 | 0.00 | 0.00 | 0.00 | 88 | 1016.1 |
| 20260831133014 | 78 | 150 | 0.9 | 4.3 | 0.00 | 0.00 | 0.00 | 88 | 1016.1 |
| 20260831132557 | 78 | 196 | 0.9 | 6.1 | 0.00 | 0.00 | 0.00 | 89 | 1016.0 |
| 20260831132032 | 78 | 136 | 0.9 | 6.1 | 0.00 | 0.00 | 0.00 | 89 | 1016.0 |
| 20260831131545 | 78 | 168 | 0.0 | 2.6 | 0.00 | 0.00 | 0.00 | 89 | 1015.9 |
| 20260831131021 | 77 | 155 | 1.7 | 2.6 | 0.00 | 0.00 | 0.00 | 89 | 1015.9 |
| 20260831130603 | 77 | 160 | 0.9 | 2.6 | 0.00 | 0.00 | 0.00 | 90 | 1015.8 |
| 20260831130008 | 77 | 160 | 0.0 | 0.9 | 0.00 | 0.00 | 0.00 | 90 | 1015.7 |
| 20260831125549 | 77 | 160 | 0.0 | 0.9 | 0.00 | 0.00 | 0.00 | 89 | 1015.7 |
| 20260831125023 | 77 | 160 | 0.0 | 0.0 | 0.00 | 0.00 | 0.00 | 89 | 1015.6 |
| 20260831124536 | 77 | 160 | 0.0 | 1.7 | 0.00 | 0.00 | 0.00 | 89 | 1015.5 |
| 20260831124011 | 77 | 160 | 0.0 | 1.7 | 0.00 | 0.00 | 0.00 | 89 | 1015.4 |
| 20260831123551 | 77 | 160 | 0.0 | 1.7 | 0.00 | 0.00 | 0.00 | 89 | 1015.5 |
| 20260831123102 | 77 | 160 | 0.0 | 1.7 | 0.00 | 0.00 | 0.00 | 89 | 1015.4 |
| 20260831122538 | 77 | 160 | 0.0 | 2.6 | 0.00 | 0.00 | 0.00 | 89 | 1015.4 |
| 20260831122015 | 77 | 160 | 0.0 | 2.6 | 0.00 | 0.00 | 0.00 | 89 | 1015.5 |
| 20260831121526 | 77 | 160 | 0.0 | 4.3 | 0.00 | 0.00 | 0.00 | 89 | 1015.5 |
| 20260831121003 | 77 | 160 | 0.0 | 2.6 | 0.00 | 0.00 | 0.00 | 89 | 1015.5 |
| 20260831120544 | 77 | 160 | 0.9 | 2.6 | 0.00 | 0.00 | 0.00 | 89 | 1015.5 |
| 20260831120055 | 77 | 146 | 0.0 | 3.5 | 0.00 | 0.00 | 0.00 | 88 | 1015.4 |
| 20260831115531 | 77 | 146 | 0.0 | 3.5 | 0.00 | 0.00 | 0.00 | 88 | 1015.4 |
| 20260831115008 | 77 | 145 | 0.0 | 3.5 | 0.00 | 0.00 | 0.00 | 88 | 1015.4 |
| 20260831114519 | 77 | 143 | 0.9 | 3.5 | 0.00 | 0.00 | 0.00 | 88 | 1015.3 |
| 20260831114100 | 77 | 134 | 0.9 | 3.5 | 0.00 | 0.00 | 0.00 | 88 | 1015.3 |
| 20260831113538 | 77 | 134 | 0.0 | 6.1 | 0.00 | 0.00 | 0.00 | 88 | 1015.4 |
| 20260831113057 | 78 | 134 | 1.7 | 6.1 | 0.00 | 0.00 | 0.00 | 87 | 1015.2 |
| 20260831112524 | 78 | 148 | 0.9 | 6.1 | 0.00 | 0.00 | 0.00 | 87 | 1015.2 |
| 20260831112002 | 78 | 165 | 1.7 | 6.1 | 0.00 | 0.00 | 0.00 | 87 | 1015.2 |
| 20260831111521 | 78 | 195 | 1.7 | 6.1 | 0.00 | 0.00 | 0.00 | 87 | 1015.2 |
| 20260831111053 | 78 | 136 | 1.7 | 7.8 | 0.00 | 0.00 | 0.00 | 87 | 1015.1 |
| 20260831110530 | 78 | 144 | 2.6 | 7.8 | 0.00 | 0.00 | 0.00 | 87 | 1015.1 |
| 20260831110041 | 78 | 153 | 2.6 | 7.8 | 0.00 | 0.00 | 0.00 | 87 | 1015.0 |
| 20260831105516 | 78 | 144 | 3.5 | 7.8 | 0.00 | 0.00 | 0.00 | 87 | 1015.0 |
| 20260831105058 | 78 | 146 | 1.7 | 4.3 | 0.00 | 0.00 | 0.00 | 87 | 1015.0 |
| 20260831104503 | 78 | 192 | 1.7 | 5.2 | 0.00 | 0.00 | 0.00 | 87 | 1015.0 |
| 20260831104045 | 78 | 202 | 1.7 | 5.2 | 0.00 | 0.00 | 0.00 | 88 | 1015.1 |
| 20260831103522 | 78 | 162 | 1.7 | 6.1 | 0.00 | 0.00 | 0.00 | 87 | 1015.0 |
| 20260831103053 | 78 | 162 | 1.7 | 7.8 | 0.00 | 0.00 | 0.00 | 87 | 1015.0 |
| 20260831102509 | 78 | 136 | 1.7 | 7.0 | 0.00 | 0.00 | 0.00 | 87 | 1015.0 |
| 20260831102050 | 78 | 215 | 2.6 | 4.3 | 0.00 | 0.00 | 0.00 | 87 | 1015.1 |
| 20260831101604 | 78 | 144 | 1.7 | 6.1 | 0.00 | 0.00 | 0.00 | 87 | 1015.2 |
| 20260831101038 | 78 | 144 | 2.6 | 7.0 | 0.00 | 0.00 | 0.00 | 87 | 1015.2 |
| 20260831100515 | 78 | 160 | 2.6 | 7.0 | 0.00 | 0.00 | 0.00 | 87 | 1015.3 |
| 20260831100035 | 78 | 177 | 1.7 | 7.8 | 0.00 | 0.00 | 0.00 | 86 | 1015.2 |
| 20260831095502 | 78 | 130 | 3.5 | 7.8 | 0.00 | 0.00 | 0.00 | 86 | 1015.1 |
| 20260831095043 | 78 | 188 | 0.9 | 5.2 | 0.00 | 0.00 | 0.00 | 86 | 1015.1 |
| 20260831094554 | 78 | 139 | 0.9 | 3.5 | 0.00 | 0.00 | 0.00 | 86 | 1015.1 |
| 20260831094031 | 78 | 153 | 0.0 | 4.3 | 0.00 | 0.00 | 0.00 | 86 | 1015.0 |
| 20260831093507 | 78 | 147 | 1.7 | 4.3 | 0.00 | 0.00 | 0.00 | 86 | 1015.0 |
| 20260831093019 | 78 | 218 | 1.7 | 7.8 | 0.00 | 0.00 | 0.00 | 85 | 1015.0 |
| 20260831092559 | 78 | 197 | 3.5 | 7.8 | 0.00 | 0.00 | 0.00 | 85 | 1015.0 |
| 20260831092035 | 79 | 157 | 2.6 | 7.0 | 0.00 | 0.00 | 0.00 | 85 | 1014.9 |
| 20260831091554 | 79 | 140 | 2.6 | 7.8 | 0.00 | 0.00 | 0.00 | 84 | 1015.0 |
| 20260831091023 | 79 | 153 | 2.6 | 7.8 | 0.00 | 0.00 | 0.00 | 84 | 1015.0 |
| 20260831090604 | 79 | 134 | 2.6 | 6.1 | 0.00 | 0.00 | 0.00 | 84 | 1014.9 |
| 20260831090011 | 79 | 143 | 0.9 | 7.0 | 0.00 | 0.00 | 0.00 | 83 | 1015.0 |
| 20260831085553 | 79 | 144 | 3.5 | 7.0 | 0.00 | 0.00 | 0.00 | 83 | 1015.1 |
| 20260831085028 | 79 | 165 | 2.6 | 7.8 | 0.00 | 0.00 | 0.00 | 82 | 1015.1 |
| 20260831084544 | 79 | 150 | 2.6 | 7.8 | 0.00 | 0.00 | 0.00 | 81 | 1015.0 |
| 20260831084016 | 79 | 265 | 4.3 | 7.8 | 0.00 | 0.00 | 0.00 | 80 | 1015.1 |
| 20260831083602 | 79 | 138 | 2.6 | 7.0 | 0.00 | 0.00 | 0.00 | 79 | 1015.2 |
| 20260831083010 | 80 | 135 | 2.6 | 6.1 | 0.00 | 0.00 | 0.00 | 79 | 1015.1 |
| 20260831082544 | 80 | 172 | 1.7 | 4.3 | 0.00 | 0.00 | 0.00 | 78 | 1015.1 |
| 20260831082021 | 80 | 146 | 2.6 | 7.0 | 0.00 | 0.00 | 0.00 | 78 | 1015.1 |
| 20260831081532 | 80 | 156 | 3.5 | 7.0 | 0.00 | 0.00 | 0.00 | 78 | 1015.0 |
| 20260831081011 | 80 | 184 | 2.6 | 4.3 | 0.00 | 0.00 | 0.00 | 78 | 1015.0 |
| 20260831080547 | 80 | 142 | 1.7 | 4.3 | 0.00 | 0.00 | 0.00 | 78 | 1015.0 |
| 20260831080106 | 80 | 144 | 1.7 | 4.3 | 0.00 | 0.00 | 0.00 | 77 | 1015.0 |
| 20260831075534 | 80 | 138 | 1.7 | 5.2 | 0.00 | 0.00 | 0.00 | 77 | 1015.0 |
| 20260831075010 | 81 | 158 | 1.7 | 4.3 | 0.00 | 0.00 | 0.00 | 76 | 1014.9 |
| 20260831074521 | 81 | 150 | 0.9 | 7.0 | 0.00 | 0.00 | 0.00 | 76 | 1015.0 |
| 20260831074102 | 81 | 169 | 2.6 | 7.0 | 0.00 | 0.00 | 0.00 | 75 | 1014.9 |
| 20260831073539 | 81 | 146 | 1.7 | 6.1 | 0.00 | 0.00 | 0.00 | 75 | 1014.9 |
| 20260831073051 | 81 | 153 | 1.7 | 6.1 | 0.00 | 0.00 | 0.00 | 75 | 1014.9 |
| 20260831072525 | 81 | 147 | 2.6 | 6.1 | 0.00 | 0.00 | 0.00 | 75 | 1015.0 |
| 20260831072002 | 81 | 147 | 1.7 | 6.1 | 0.00 | 0.00 | 0.00 | 75 | 1015.1 |
| 20260831071513 | 81 | 153 | 1.7 | 5.2 | 0.00 | 0.00 | 0.00 | 75 | 1015.1 |
| 20260831071055 | 81 | 159 | 1.7 | 4.3 | 0.00 | 0.00 | 0.00 | 74 | 1015.0 |
| 20260831070533 | 82 | 165 | 1.7 | 4.3 | 0.00 | 0.00 | 0.00 | 74 | 1015.0 |
| 20260831070043 | 82 | 169 | 1.7 | 6.1 | 0.00 | 0.00 | 0.00 | 74 | 1015.0 |
| 20260831065519 | 82 | 157 | 2.6 | 4.3 | 0.00 | 0.00 | 0.00 | 73 | 1014.9 |
| 20260831065101 | 82 | 143 | 1.7 | 4.3 | 0.00 | 0.00 | 0.00 | 73 | 1015.0 |
| 20260831064507 | 82 | 153 | 1.7 | 5.2 | 0.00 | 0.00 | 0.00 | 73 | 1015.0 |
| 20260831064047 | 82 | 151 | 0.9 | 6.1 | 0.00 | 0.00 | 0.00 | 72 | 1015.1 |
| 20260831063524 | 83 | 147 | 2.6 | 7.0 | 0.00 | 0.00 | 0.00 | 72 | 1015.1 |
| 20260831063035 | 83 | 169 | 2.6 | 7.0 | 0.00 | 0.00 | 0.00 | 71 | 1015.1 |
| 20260831062514 | 83 | 159 | 2.6 | 6.1 | 0.00 | 0.00 | 0.00 | 71 | 1015.2 |
| 20260831062057 | 83 | 161 | 2.6 | 7.0 | 0.00 | 0.00 | 0.00 | 70 | 1015.2 |
| 20260831061607 | 83 | 136 | 3.5 | 7.0 | 0.00 | 0.00 | 0.00 | 70 | 1015.2 |
| 20260831061041 | 84 | 141 | 2.6 | 7.0 | 0.00 | 0.00 | 0.00 | 69 | 1015.2 |
| 20260831060517 | 84 | 142 | 3.5 | 7.8 | 0.00 | 0.00 | 0.00 | 68 | 1015.2 |
| 20260831060028 | 84 | 142 | 3.5 | 7.8 | 0.00 | 0.00 | 0.00 | 68 | 1015.1 |
| 20260831055506 | 84 | 152 | 2.6 | 7.0 | 0.00 | 0.00 | 0.00 | 67 | 1015.0 |
| 20260831055047 | 84 | 157 | 3.5 | 7.0 | 0.00 | 0.00 | 0.00 | 67 | 1015.0 |
| 20260831054606 | 84 | 147 | 1.7 | 6.1 | 0.00 | 0.00 | 0.00 | 67 | 1015.0 |
| 20260831054034 | 84 | 157 | 1.7 | 7.0 | 0.00 | 0.00 | 0.00 | 66 | 1015.0 |
| 20260831053511 | 84 | 161 | 2.6 | 7.0 | 0.00 | 0.00 | 0.00 | 66 | 1015.0 |
| 20260831053025 | 84 | 151 | 1.7 | 4.3 | 0.00 | 0.00 | 0.00 | 65 | 1015.0 |
| 20260831052605 | 85 | 144 | 0.9 | 3.5 | 0.00 | 0.00 | 0.00 | 65 | 1014.9 |
| 20260831052039 | 85 | 143 | 0.9 | 6.1 | 0.00 | 0.00 | 0.00 | 64 | 1014.8 |
| 20260831051552 | 85 | 144 | 1.7 | 6.1 | 0.00 | 0.00 | 0.00 | 64 | 1014.8 |
| 20260831051027 | 85 | 148 | 2.6 | 7.0 | 0.00 | 0.00 | 0.00 | 64 | 1014.8 |
| 20260831050504 | 85 | 160 | 3.5 | 8.7 | 0.00 | 0.00 | 0.00 | 63 | 1014.7 |
| 20260831050018 | 85 | 153 | 4.3 | 8.7 | 0.00 | 0.00 | 0.00 | 63 | 1014.7 |
| 20260831045558 | 85 | 146 | 4.3 | 8.7 | 0.00 | 0.00 | 0.00 | 63 | 1014.7 |
| 20260831045036 | 86 | 171 | 3.5 | 7.8 | 0.00 | 0.00 | 0.00 | 63 | 1014.6 |
| 20260831044546 | 86 | 148 | 2.6 | 9.6 | 0.00 | 0.00 | 0.00 | 62 | 1014.6 |
| 20260831044021 | 86 | 164 | 3.5 | 9.6 | 0.00 | 0.00 | 0.00 | 62 | 1014.6 |
| 20260831043603 | 86 | 143 | 5.2 | 9.6 | 0.00 | 0.00 | 0.00 | 62 | 1014.5 |
| 20260831043009 | 86 | 172 | 2.6 | 9.6 | 0.00 | 0.00 | 0.00 | 62 | 1014.6 |
| 20260831042553 | 86 | 220 | 5.2 | 9.6 | 0.00 | 0.00 | 0.00 | 62 | 1014.6 |
| 20260831042027 | 86 | 161 | 3.5 | 8.7 | 0.00 | 0.00 | 0.00 | 61 | 1014.6 |
| 20260831041549 | 86 | 132 | 2.6 | 9.6 | 0.00 | 0.00 | 0.00 | 61 | 1014.6 |
| 20260831041015 | 87 | 146 | 4.3 | 12.2 | 0.00 | 0.00 | 0.00 | 61 | 1014.5 |
| 20260831040556 | 87 | 165 | 3.5 | 12.2 | 0.00 | 0.00 | 0.00 | 61 | 1014.5 |
| 20260831040001 | 87 | 166 | 3.5 | 8.7 | 0.00 | 0.00 | 0.00 | 60 | 1014.4 |
| 20260831035543 | 87 | 132 | 4.3 | 8.7 | 0.00 | 0.00 | 0.00 | 60 | 1014.4 |
| 20260831035019 | 87 | 145 | 4.3 | 11.3 | 0.00 | 0.00 | 0.00 | 60 | 1014.3 |
| 20260831034531 | 87 | 174 | 5.2 | 11.3 | 0.00 | 0.00 | 0.00 | 60 | 1014.3 |
| 20260831034007 | 87 | 150 | 5.2 | 14.8 | 0.00 | 0.00 | 0.00 | 60 | 1014.2 |
| 20260831033546 | 87 | 156 | 5.2 | 14.8 | 0.00 | 0.00 | 0.00 | 60 | 1014.2 |
| 20260831033058 | 87 | 155 | 6.1 | 9.6 | 0.00 | 0.00 | 0.00 | 60 | 1014.1 |
| 20260831032533 | 88 | 140 | 5.2 | 10.4 | 0.00 | 0.00 | 0.00 | 60 | 1014.0 |
| 20260831032009 | 88 | 134 | 5.2 | 10.4 | 0.00 | 0.00 | 0.00 | 59 | 1014.1 |
| 20260831031529 | 88 | 142 | 4.3 | 12.2 | 0.00 | 0.00 | 0.00 | 59 | 1014.0 |
| 20260831031103 | 88 | 188 | 2.6 | 12.2 | 0.00 | 0.00 | 0.00 | 59 | 1014.0 |
| 20260831030542 | 88 | 148 | 3.5 | 10.4 | 0.00 | 0.00 | 0.00 | 58 | 1013.9 |
| 20260831030049 | 88 | 167 | 2.6 | 13.0 | 0.00 | 0.00 | 0.00 | 58 | 1013.8 |
| 20260831025526 | 88 | 138 | 6.1 | 13.0 | 0.00 | 0.00 | 0.00 | 58 | 1013.7 |
| 20260831025003 | 88 | 134 | 5.2 | 10.4 | 0.00 | 0.00 | 0.00 | 58 | 1013.6 |
| 20260831024514 | 88 | 135 | 4.3 | 9.6 | 0.00 | 0.00 | 0.00 | 56 | 1013.6 |
| 20260831024055 | 88 | 140 | 4.3 | 8.7 | 0.00 | 0.00 | 0.00 | 56 | 1013.6 |
| 20260831023531 | 87 | 159 | 4.3 | 8.7 | 0.00 | 0.00 | 0.00 | 55 | 1013.6 |
| 20260831023042 | 87 | 146 | 5.2 | 8.7 | 0.00 | 0.00 | 0.00 | 54 | 1013.4 |
| 20260831022520 | 85 | 103 | 4.3 | 8.7 | 0.00 | 0.00 | 0.00 | 55 | 1013.3 |
| 20260831022059 | 85 | 128 | 0.0 | 0.0 | 0.00 | 0.00 | 0.00 | 55 | 1013.2 |
| 20260831021505 | 86 | 128 | 0.0 | 0.0 | 0.00 | 0.00 | 0.00 | 54 | 1013.1 |
| 20260831021047 | 86 | 128 | 0.0 | 0.0 | 0.00 | 0.00 | 0.00 | 54 | 1013.0 |
| 20260831020523 | 86 | 128 | 0.0 | 0.0 | 0.00 | 0.00 | 0.00 | 53 | 1012.8 |
| 20260831020031 | 87 | 128 | 0.0 | 0.0 | 0.00 | 0.00 | 0.00 | 53 | 1012.9 |
| 20260831015508 | 87 | 128 | 0.0 | 0.0 | 0.00 | 0.00 | 0.00 | 52 | 1012.9 |
| 20260831015049 | 88 | 128 | 0.0 | 0.0 | 0.00 | 0.00 | 0.00 | 50 | 1012.8 |
| 20260831014601 | 88 | 128 | 0.0 | 0.0 | 0.00 | 0.00 | 0.00 | 50 | 1012.7 |
| 20260831014037 | 89 | 128 | 0.0 | 0.0 | 0.00 | 0.00 | 0.00 | 49 | 1012.6 |
| 20260831013514 | 89 | 128 | 0.0 | 0.0 | 0.00 | 0.00 | 0.00 | 49 | 1012.6 |
| 20260831013025 | 90 | 128 | 0.0 | 0.9 | 0.00 | 0.00 | 0.00 | 48 | 1012.6 |
| 20260831012502 | 90 | 128 | 0.0 | 0.9 | 0.00 | 0.00 | 0.00 | 47 | 1012.5 |
| 20260831012042 | 90 | 128 | 0.0 | 1.7 | 0.00 | 0.00 | 0.00 | 47 | 1012.5 |
| 20260831011557 | 91 | 128 | 0.0 | 1.7 | 0.00 | 0.00 | 0.00 | 46 | 1012.4 |
| 20260831011029 | 91 | 128 | 0.0 | 2.6 | 0.00 | 0.00 | 0.00 | 46 | 1012.4 |
| 20260831010506 | 91 | 128 | 0.0 | 2.6 | 0.00 | 0.00 | 0.00 | 45 | 1012.4 |
| 20260831010030 | 92 | 128 | 0.0 | 4.3 | 0.00 | 0.00 | 0.00 | 45 | 1012.4 |
| 20260831005601 | 92 | 128 | 0.0 | 4.3 | 0.00 | 0.00 | 0.00 | 45 | 1012.4 |
| 20260831005036 | 92 | 122 | 0.9 | 3.5 | 0.00 | 0.00 | 0.00 | 44 | 1012.3 |
| 20260831004545 | 93 | 122 | 0.9 | 3.5 | 0.00 | 0.00 | 0.00 | 43 | 1012.3 |
| 20260831004022 | 93 | 122 | 0.0 | 3.5 | 0.00 | 0.00 | 0.00 | 43 | 1012.3 |
| 20260831003604 | 93 | 123 | 0.9 | 3.5 | 0.00 | 0.00 | 0.00 | 43 | 1012.4 |
| 20260831003007 | 94 | 170 | 0.9 | 6.1 | 0.00 | 0.00 | 0.00 | 43 | 1012.3 |
| 20260831002549 | 94 | 139 | 0.9 | 4.3 | 0.00 | 0.00 | 0.00 | 43 | 1012.2 |
| 20260831002026 | 94 | 139 | 1.7 | 4.3 | 0.00 | 0.00 | 0.00 | 42 | 1012.2 |
| 20260831001537 | 94 | 139 | 0.0 | 1.7 | 0.00 | 0.00 | 0.00 | 42 | 1012.2 |
| 20260831001015 | 94 | 139 | 0.0 | 2.6 | 0.00 | 0.00 | 0.00 | 42 | 1012.3 |
| 20260831000556 | 95 | 139 | 0.0 | 6.1 | 0.00 | 0.00 | 0.00 | 42 | 1012.3 |
| 20260831000009 | 95 | 145 | 1.7 | 9.6 | 0.00 | 0.00 | 0.00 | 42 | 1012.4 |
| 20260830235544 | 95 | 142 | 3.5 | 9.6 | 0.00 | 0.00 | 0.00 | 41 | 1012.4 |
| 20260830235023 | 95 | 138 | 1.7 | 5.2 | 0.00 | 0.00 | 0.00 | 42 | 1012.4 |
| 20260830234543 | 95 | 122 | 0.9 | 4.3 | 0.00 | 0.00 | 0.00 | 42 | 1012.3 |
| 20260830234013 | 95 | 174 | 0.0 | 2.6 | 0.00 | 0.00 | 0.00 | 42 | 1012.4 |
| 20260830233551 | 96 | 174 | 0.9 | 7.0 | 0.00 | 0.00 | 0.00 | 41 | 1012.3 |
| 20260830233103 | 96 | 155 | 3.5 | 7.0 | 0.00 | 0.00 | 0.00 | 40 | 1012.3 |
| 20260830232540 | 96 | 140 | 2.6 | 7.8 | 0.00 | 0.00 | 0.00 | 40 | 1012.4 |
| 20260830232019 | 96 | 120 | 0.9 | 7.8 | 0.00 | 0.00 | 0.00 | 40 | 1012.4 |
| 20260830231529 | 96 | 146 | 4.3 | 7.8 | 0.00 | 0.00 | 0.00 | 40 | 1012.3 |
| 20260830231010 | 97 | 76 | 0.9 | 7.8 | 0.00 | 0.00 | 0.00 | 40 | 1012.3 |
| 20260830230546 | 97 | 140 | 1.7 | 7.0 | 0.00 | 0.00 | 0.00 | 39 | 1012.4 |
| 20260830225534 | 98 | 70 | 1.7 | 9.6 | 0.00 | 0.00 | 0.00 | 40 | 1012.3 |
| 20260830225011 | 97 | 133 | 3.5 | 9.6 | 0.00 | 0.00 | 0.00 | 40 | 1012.3 |
| 20260830224523 | 97 | 169 | 4.3 | 8.7 | 0.00 | 0.00 | 0.00 | 40 | 1012.3 |
| 20260830224001 | 97 | 130 | 1.7 | 8.7 | 0.00 | 0.00 | 0.00 | 41 | 1012.4 |
| 20260830223543 | 97 | 127 | 3.5 | 10.4 | 0.00 | 0.00 | 0.00 | 41 | 1012.4 |
| 20260830223007 | 97 | 173 | 4.3 | 10.4 | 0.00 | 0.00 | 0.00 | 40 | 1012.4 |
| 20260830222549 | 97 | 158 | 1.7 | 8.7 | 0.00 | 0.00 | 0.00 | 40 | 1012.4 |
| 20260830222028 | 97 | 151 | 3.5 | 8.7 | 0.00 | 0.00 | 0.00 | 39 | 1012.5 |
| 20260830221544 | 97 | 129 | 3.5 | 8.7 | 0.00 | 0.00 | 0.00 | 41 | 1012.6 |
| 20260830221018 | 97 | 209 | 3.5 | 8.7 | 0.00 | 0.00 | 0.00 | 40 | 1012.6 |
| 20260830220601 | 98 | 145 | 3.5 | 8.7 | 0.00 | 0.00 | 0.00 | 39 | 1012.6 |
| 20260830220010 | 98 | 128 | 2.6 | 11.3 | 0.00 | 0.00 | 0.00 | 40 | 1012.6 |
| 20260830215553 | 98 | 140 | 4.3 | 11.3 | 0.00 | 0.00 | 0.00 | 40 | 1012.6 |
| 20260830215033 | 98 | 138 | 3.5 | 9.6 | 0.00 | 0.00 | 0.00 | 41 | 1012.7 |
| 20260830214545 | 98 | 142 | 2.6 | 10.4 | 0.00 | 0.00 | 0.00 | 40 | 1012.6 |
| 20260830214023 | 98 | 155 | 4.3 | 10.4 | 0.00 | 0.00 | 0.00 | 39 | 1012.7 |
| 20260830213604 | 98 | 138 | 0.9 | 11.3 | 0.00 | 0.00 | 0.00 | 42 | 1012.8 |
| 20260830213019 | 98 | 123 | 4.3 | 8.7 | 0.00 | 0.00 | 0.00 | 40 | 1012.9 |
| 20260830212555 | 98 | 136 | 1.7 | 7.0 | 0.00 | 0.00 | 0.00 | 39 | 1013.0 |
| 20260830212033 | 98 | 144 | 2.6 | 9.6 | 0.00 | 0.00 | 0.00 | 39 | 1013.0 |
| 20260830211547 | 98 | 187 | 3.5 | 9.6 | 0.00 | 0.00 | 0.00 | 39 | 1013.2 |
| 20260830211024 | 98 | 78 | 0.0 | 7.0 | 0.00 | 0.00 | 0.00 | 41 | 1013.2 |
| 20260830210502 | 98 | 76 | 2.6 | 8.7 | 0.00 | 0.00 | 0.00 | 41 | 1013.3 |
| 20260830210016 | 98 | 88 | 2.6 | 10.4 | 0.00 | 0.00 | 0.00 | 42 | 1013.3 |
| 20260830205559 | 97 | 205 | 0.9 | 10.4 | 0.00 | 0.00 | 0.00 | 41 | 1013.3 |
| 20260830205036 | 97 | 130 | 2.6 | 8.7 | 0.00 | 0.00 | 0.00 | 42 | 1013.5 |
| 20260830204550 | 97 | 129 | 3.5 | 9.6 | 0.00 | 0.00 | 0.00 | 43 | 1013.6 |
| 20260830204028 | 96 | 148 | 5.2 | 9.6 | 0.00 | 0.00 | 0.00 | 46 | 1013.6 |
| 20260830203507 | 96 | 134 | 3.5 | 8.7 | 0.00 | 0.00 | 0.00 | 44 | 1013.7 |
| 20260830203020 | 96 | 150 | 3.5 | 10.4 | 0.00 | 0.00 | 0.00 | 44 | 1013.7 |
| 20260830202604 | 96 | 146 | 7.0 | 10.4 | 0.00 | 0.00 | 0.00 | 43 | 1013.8 |
| 20260830202041 | 96 | 129 | 3.5 | 9.6 | 0.00 | 0.00 | 0.00 | 44 | 1014.0 |
| 20260830201610 | 97 | 159 | 6.1 | 9.6 | 0.00 | 0.00 | 0.00 | 41 | 1014.1 |
| 20260830201033 | 97 | 130 | 2.6 | 7.0 | 0.00 | 0.00 | 0.00 | 42 | 1014.0 |
| 20260830200512 | 96 | 188 | 2.6 | 11.3 | 0.00 | 0.00 | 0.00 | 43 | 1014.1 |
| 20260830200047 | 96 | 140 | 1.7 | 10.4 | 0.00 | 0.00 | 0.00 | 43 | 1014.2 |
| 20260830195504 | 96 | 174 | 4.3 | 10.4 | 0.00 | 0.00 | 0.00 | 42 | 1014.3 |
| 20260830195048 | 96 | 130 | 2.6 | 8.7 | 0.00 | 0.00 | 0.00 | 44 | 1014.3 |
| 20260830194611 | 96 | 206 | 1.7 | 9.6 | 0.00 | 0.00 | 0.00 | 45 | 1014.4 |
| 20260830194038 | 95 | 131 | 4.3 | 9.6 | 0.00 | 0.00 | 0.00 | 45 | 1014.5 |
| 20260830193513 | 95 | 218 | 1.7 | 10.4 | 0.00 | 0.00 | 0.00 | 46 | 1014.5 |